Weather in Turayf

Saudi Arabia     31°40′16″N   38°40′16″E
temp.,
°C
wind,
m/s
gust,
m/s
humid.,
%
clouds,
%
prec.,
mm/h
press.,
hPa
HPBL,
m
17 may, mon
mon1700:00+23nw510210 0.0 1009192
03:00+21nw44244 0.0 100944
06:00+20n33265 0.0 101028
09:00+26ene0116100 0.0 1010326
12:00+31w451118 0.0 10091601
15:00+33w5885 0.0 10072980
18:00+32w86105 0.0 10072538
21:00+29wnw341514 0.0 100943
18 may, tue
tue1800:00+24nnw58268 0.0 1010132
03:00+22nw443055 0.0 101159
06:00+21nne33330 0.0 101232
09:00+25ene22230 0.0 1012548
12:00+30wsw22140 0.0 10111228
15:00+33w45100 0.0 10101962
18:00+33nw2480 0.0 10091802
21:00+29n33120 0.0 101128
19 may, wed
wed1900:00+26nne22140 0.0 101112
03:00+24e44160 0.0 101132
06:00+23e45180 0.0 101247
09:00+29ese55120 0.0 1012474
12:00+33sse4490 0.0 10111594
15:00+35s2480 0.0 10093409
18:00+36wsw2380 0.0 10083965
21:00+31nw33120 0.0 101029
20 may, thu
thu2000:00+29sse33130 0.0 101028
03:00+26se33150 0.0 101016
06:00+25se33170 0.0 101122
09:00+31se67120 0.0 1011506
12:00+37sse5580 0.0 10092412
15:00+38se4363 0.0 10075076
18:00+38e555100 0.0 10063745
21:00+34ese511864 0.0 1008222
21 may, fri
fri2100:00+30se6131015 0.0 1009222
03:00+28se5121357 0.0 1009180
06:00+27se6151462 0.0 1009206
09:00+34se912913 0.0 1009831
12:00+38se91080 0.0 10074788
15:00+39se89890 0.0 10055114
18:00+38ese10128100 0.0 10034350
21:00+33e10161160 0.0 1005399